Lake Conroe Weather Center

Moon Phase Calendar



Lake Conroe Water Level
Online Cameras

 


      

Current Conditions in Willis
3/2/2024 12:52:44 AM

55°F
Feels Like 55
Clear
Humidity
91%
Pressure
30.06"
Wind
4 mph (SSW)
Dew Point
52°F
UV Index
0/10 (Low)
Visibility
6 mi

Hourly Forecast

Date & Time Sat, Mar 2
12:00 AM
Sat, Mar 2
1:00 AM
Sat, Mar 2
2:00 AM
Sat, Mar 2
3:00 AM
Sat, Mar 2
4:00 AM
Sat, Mar 2
5:00 AM
Sat, Mar 2
6:00 AM
Sat, Mar 2
7:00 AM
Sat, Mar 2
8:00 AM
Sat, Mar 2
9:00 AM
Sat, Mar 2
10:00 AM
Sat, Mar 2
11:00 AM
Sat, Mar 2
12:00 PM
Sat, Mar 2
1:00 PM
Sat, Mar 2
2:00 PM
Sat, Mar 2
3:00 PM
Sat, Mar 2
4:00 PM
Sat, Mar 2
5:00 PM
Sat, Mar 2
6:00 PM
Sat, Mar 2
7:00 PM
Sat, Mar 2
8:00 PM
Sat, Mar 2
9:00 PM
Sat, Mar 2
10:00 PM
Sat, Mar 2
11:00 PM
Sun, Mar 3
12:00 AM
Sun, Mar 3
1:00 AM
Sun, Mar 3
2:00 AM
Sun, Mar 3
3:00 AM
Sun, Mar 3
4:00 AM
Sun, Mar 3
5:00 AM
Sun, Mar 3
6:00 AM
Sun, Mar 3
7:00 AM
Sun, Mar 3
8:00 AM
Sun, Mar 3
9:00 AM
Sun, Mar 3
10:00 AM
Sun, Mar 3
11:00 AM
Sun, Mar 3
12:00 PM
Sun, Mar 3
1:00 PM
Sun, Mar 3
2:00 PM
Sun, Mar 3
3:00 PM
Sun, Mar 3
4:00 PM
Sun, Mar 3
5:00 PM
Sun, Mar 3
6:00 PM
Sun, Mar 3
7:00 PM
Sun, Mar 3
8:00 PM
Sun, Mar 3
9:00 PM
Sun, Mar 3
10:00 PM
Sun, Mar 3
11:00 PM
Condition
Clear

Clear

Clear

Clear

Clear

Clear

Clear

Clear

Clear

Clear

Clear

Clear

Clear

Clear

Clear

Clear

Clear

Clouds

Clouds

Clouds

Clouds

Clouds

Clouds

Clouds

Clouds

Clouds

Clouds

Clouds

Clouds

Clouds

Clouds

Clouds

Clouds

Clouds

Clouds

Clouds

Clouds

Clouds

Clouds

Clouds

Clouds

Clouds

Clouds

Clouds

Clouds

Clouds

Clouds

Clouds
Temperature 55°F55°F55°F55°F55°F55°F54°F54°F58°F63°F67°F71°F74°F77°F78°F79°F79°F77°F71°F67°F66°F65°F64°F63°F63°F62°F61°F61°F60°F61°F61°F62°F63°F64°F66°F68°F71°F74°F77°F79°F78°F77°F73°F69°F67°F67°F66°F65°F
Feels Like 55°F55°F55°F55°F55°F54°F54°F54°F58°F63°F67°F71°F74°F77°F78°F79°F79°F76°F71°F67°F66°F65°F64°F64°F63°F62°F62°F61°F61°F61°F61°F62°F63°F64°F66°F68°F71°F74°F77°F78°F78°F77°F73°F69°F68°F67°F67°F66°F
Cloudiness 2%1%1%1%2%2%2%2%3%2%1%1%1%0%0%1%3%15%29%100%100%100%100%100%100%100%100%100%100%100%100%100%100%100%100%100%100%100%100%100%100%100%99%100%99%99%99%99%
Visibility 6 mi6 mi6 mi6 mi6 mi6 mi6 mi6 mi6 mi6 mi6 mi6 mi6 mi6 mi6 mi6 mi6 mi6 mi6 mi6 mi6 mi6 mi6 mi6 mi6 mi6 mi6 mi6 mi6 mi6 mi6 mi6 mi6 mi6 mi6 mi6 mi6 mi6 mi6 mi6 mi6 mi6 mi6 mi6 mi6 mi6 mi6 mi6 mi
Precipitation 0%0%0%0%0%0%0%0%0%0%0%0%0%0%0%0%0%0%0%0%0%0%0%0%0%0%0%0%0%0%0%0%0%0%0%0%0%0%0%0%0%0%0%0%0%0%0%0%
Humidity 90%91%92%93%94%95%96%96%90%79%69%61%54%47%42%40%40%47%59%67%75%82%86%89%91%92%95%97%97%96%95%91%88%86%80%76%71%61%54%51%50%55%67%79%85%87%90%93%
Dew Point 53°F52°F53°F53°F53°F53°F53°F53°F55°F56°F57°F57°F56°F55°F53°F53°F53°F55°F56°F56°F57°F59°F60°F60°F60°F60°F60°F59°F59°F59°F59°F59°F59°F59°F60°F60°F60°F60°F59°F58°F58°F60°F61°F62°F62°F63°F63°F63°F
Pressure 30.06"30.06"30.06"30.06"30.03"30.03"30.06"30.06"30.09"30.09"30.09"30.06"30.06"30.03"30"29.97"29.94"29.94"29.94"29.97"29.97"30"30"30"29.97"29.97"29.97"29.94"29.94"29.94"29.97"29.97"30"30"30"30"29.97"29.94"29.91"29.88"29.88"29.85"29.88"29.88"29.91"29.91"29.91"29.91"
Wind Speed 4.4 mph4 mph4 mph3.7 mph3.5 mph3.4 mph4.1 mph4.2 mph4.3 mph5.6 mph5.4 mph6 mph6.3 mph6.2 mph6.6 mph6.8 mph6.3 mph5.8 mph4.3 mph4 mph6.1 mph6.5 mph6.3 mph7.1 mph7 mph6.6 mph5.2 mph4.6 mph5.6 mph5.8 mph6.2 mph6.6 mph7.4 mph7 mph8.2 mph7.6 mph7 mph7.1 mph7.5 mph8.4 mph8.3 mph7.3 mph6.2 mph6.2 mph6.3 mph6.8 mph6.7 mph6.4 mph
Wind
Direction
198°
SSW
206°
SSW
219°
SW
216°
SW
207°
SSW
196°
SSW
180°
S
166°
SSE
171°
S
180°
S
176°
S
175°
S
173°
S
174°
S
185°
S
186°
S
182°
S
187°
S
193°
SSW
167°
SSE
145°
SE
153°
SSE
163°
SSE
164°
SSE
170°
S
172°
S
178°
S
182°
S
182°
S
187°
S
196°
SSW
191°
S
187°
S
181°
S
175°
S
180°
S
176°
S
171°
S
171°
S
168°
SSE
170°
S
159°
SSE
161°
SSE
160°
SSE
154°
SSE
155°
SSE
151°
SSE
152°
SSE

Daily Forecast

Date High Low Precip. Humidity
Today
Mar 2

Clear
79 °F
54 °F
0%
54%
Sunday
Mar 3

Clouds
79 °F
60 °F
0%
71%
Monday
Mar 4

Rain
80 °F
63 °F
100%
62%
Tuesday
Mar 5

Rain
86 °F
64 °F
99%
62%
Wednesday
Mar 6

Rain
82 °F
61 °F
48%
41%
Thursday
Mar 7

Rain
66 °F
64 °F
100%
95%
Friday
Mar 8

Rain
69 °F
62 °F
100%
92%
Saturday
Mar 9

Clear
64 °F
50 °F
0%
39%
Sunday
Mar 10

Clouds
70 °F
49 °F
0%
31%
Monday
Mar 11

Rain
68 °F
56 °F
73%
86%
Tuesday
Mar 12

Rain
69 °F
58 °F
38%
78%
Wednesday
Mar 13

Rain
77 °F
66 °F
66%
81%
Thursday
Mar 14

Rain
80 °F
68 °F
86%
78%
Friday
Mar 15

Rain
77 °F
65 °F
100%
93%
Saturday
Mar 16

Rain
78 °F
60 °F
100%
81%
Sunday
Mar 17

Clouds
60 °F
46 °F
0%
54%

Temperature 8-14 Day Outlook



Precipitation 8-14 Day Outlook




Quick Links
Lake Conroe News
Lake Conroe Photos
Lake Conroe Videos




About Us
Contact Us
Site Map
Search Site
Advertise With Us
   
Conroe.USLakes.info
THE LAKE CONROE WEBSITE

Copyright 2024, Lakes Online
Privacy    |    Legal